Location: Eckley Miners' Village
(40.9930°N, 75.8630°W)
Time: 10:41:25
(UTC-04:00)

Vanguard 1 Rocket - Pass Details

Date: 16 March 2026
Orbit: 654 x 4213 km, 34.3° (Epoch: 11 April)

Event Time Altitude Azimuth Distance (km) Brightness Sun altitude
Rises 07:42:46 0° 238° (WSW) 3,956 10.2 4.7°
Reaches altitude 10° 07:46:16 10° 228° (SW) 2,610 9.4 5.4°
Maximum altitude 07:51:06 29° 169° (SSE) 1,310 8.6 6.3°
Drops below altitude 10° 07:54:58 10° 107° (ESE) 2,061 11.7 7.0°
Sets 07:57:23 0° 96° (E) 2,976 12.7 7.4°
